OAO 2

Last updated on Sun Aug 31 2025 00:02:13 GMT+0000 (Coordinated Universal Time)

1 03597U 68110A 25242.12563269 .00000323 00000+0 92370-4 0 9991 2 03597 34.9922 254.6451 0005034 103.2622 256.8630 14.47150012991363
UTC large
Height (km)
Speed (km/s)
/
Latitude / Longitude
Inclination (degrees)
Orbital Period (minutes)
Azimuth
Elevation
Range (km)
Doppler Factor

Next 0 passes for location: London (51.5072 / 0.1276)

Sorry there are no passes over London.